Regional Weather Roundup
Issued by NWS

Home | Current Version | Previous Version | Text Only | Print | Product List | Glossary On
Versions: 1 2 3 4 5 6 7 8 9 10 11 12 13 14 15 16 17 18 19 20 21 22 23 24 25 26 27
000
ASUS45 KBOU 170507
RWRCO

WEATHER ROUNDUP FOR COLORADO
NATIONAL WEATHER SERVICE DENVER/BOULDER CO
1100 PM MDT MON OCT 16 2017

NOTE: "FAIR" INDICATES FEW OR NO CLOUDS BELOW 12000 FEET WITH NO
SIGNIFICANT WEATHER AND/OR OBSTRUCTIONS TO VISIBILITY.

COZ001>005-013-030-031-170600-
...NORTHWEST COLORADO...

CITY           SKY/WX    TMP DP  RH WIND       PRES   REMARKS
CRAIG          FAIR      33  15  47 CALM      30.39R
HAYDEN         FAIR      40  10  29 E14       30.41R
MEEKER         FAIR      35  15  44 E6        30.41R WCI  30
RABBIT EARS PA FAIR      37  -2  18 W6        30.55F
STEAMBOAT SPGS FAIR      38   8  29 CALM      30.42S
WALDEN         FAIR      27   7  43 SE9       30.46S WCI  17
$$

COZ006>008-011-170600-
...WEST CENTRAL VALLEYS...

CITY           SKY/WX    TMP DP  RH WIND       PRES   REMARKS
GRAND JUNCTION FAIR      45  11  25 E6        30.35S
MONTROSE       FAIR      41  16  36 S10       30.42R
EAGLE          FAIR      35  11  36 E5        30.46R WCI  31
RIFLE          FAIR      40  15  36 CALM      30.40R
DELTA          FAIR      44  13  29 E5        30.39R
NUCLA          FAIR      45   9  23 E12       30.42S
$$

COZ017>023-064>068-170600-
...SOUTHWEST COLORADO...

CITY           SKY/WX    TMP DP  RH WIND       PRES   REMARKS
DURANGO        FAIR      41  16  36 N8        30.41S
CORTEZ         FAIR      38  16  40 E9        30.39R
PAGOSA SPRINGS FAIR      38  13  35 CALM      30.48S
TELLURIDE      NOT AVBL
WOLF CREEK PAS FAIR      36   9  32 SW14      30.70F
$$

COZ009-010-012-014-032>034-037-058>063-170600-
...CENTRAL COLORADO...

CITY           SKY/WX    TMP DP  RH WIND       PRES   REMARKS
ASPEN          FAIR      35  11  36 SW9       30.48R WCI  28
BUENA VISTA    FAIR      42   2  19 NW10      30.45S
COPPER MTN     MIX PCPN  34  -6  18 W6        30.66R WCI  29
BERTHOUD PASS  FAIR      30  21  69 W9        30.65R WCI  22
COTTONWOOD PAS FAIR      50 -27   3 SW7       30.54S
GUNNISON       FAIR      34   6  31 CALM      30.49R
KREMMLING      FAIR      34  18  51 CALM      30.47R
LEADVILLE      FAIR      27   2  34 NE7       30.55R WCI  19
MONARCH PASS   FAIR      36  -9  14 W22       30.74S
SALIDA         NOT AVBL
SUNLIGHT       FAIR      36   0  21 SW8       30.63R
WILKERSON PASS FAIR      41 -13   9 W3        30.63F
$$

COZ069>075-170600-
...SAN LUIS VALLEY/SANGRE DE CRISTO MOUNTAINS...

CITY           SKY/WX    TMP DP  RH WIND       PRES   REMARKS
ALAMOSA        FAIR      32  17  54 CALM      30.43R
DEL NORTE      FAIR      42  15  32 W10       30.45S
LA VETA PASS   FAIR      45   9  23 SW29G40   30.64F
SAGUACHE       FAIR      45   3  18 N10       30.46R
$$

COZ035-036-038>040-170600-
...NORTHERN COLORADO FRONT RANGE...

CITY           SKY/WX    TMP DP  RH WIND       PRES   REMARKS
DENVER INTL AP FAIR      50  20  30 SW5       30.27R
DMNS CITY PARK   N/A     51  18  27 SE12      30.27S
AURORA         PTCLDY    46  21  37 S9        30.29S
FRONT RANGE AP FAIR      61  16  17 CALM      30.29S
ERIE MUNI ARPT FAIR      42  24  49 SE3       30.31S
BOULDER MUN AP FAIR      63  12  14 W9        30.26S
CENTENNIAL     FAIR      45  22  40 S8        30.29S
BROOMFIELD     FAIR      61  10  13 W18       30.28S
FORT COLLINS   FAIR      50  20  30 SE12      30.25S
LONGMONT       FAIR      44  24  44 W3        30.27S
$$

COZ041-046-047-076>085-087-088-170600-
...PIKES PEAK/PALMER DIVIDE AND SOUTHERN FOOTHILLS...

CITY           SKY/WX    TMP DP  RH WIND       PRES   REMARKS
COLO. SPRINGS  FAIR      46  16  30 N10       30.33R
A. F. ACADEMY  FAIR      37  15  40 N8        30.34R
SCHRIEVER AFB  FAIR      53  12  19 N6        30.32S
CHEYENNE MTN   FAIR      56   7  14 W8        30.30S
ELLICOTT       FAIR     N/A N/A N/A CALM      30.30S
FALCON         FAIR      48   6  18 NW3       30.37R
FORT CARSON    FAIR      50  16  25 NW9       30.28S
LIMON          FAIR      37  23  56 N6        30.27R
MONUMENT HILL  NOT AVBL
CANON CITY     CLEAR     50  12  22 MISG      30.27R
WALSENBURG     FAIR      57  12  17 W10       30.29S
TRINIDAD       FAIR      54  25  32 W14       30.27R
$$

COZ042>045-048>051-090-091-170600-
...NORTHEAST COLORADO...

CITY           SKY/WX    TMP DP  RH WIND       PRES   REMARKS
GREELEY ARPT   NOT AVBL
AKRON          FAIR      55  16  21 NE3       30.22S
BURLINGTON     FAIR      43  31  62 W8        30.19S
WRAY           FAIR      45  27  49 W6        30.17S
YUMA           FAIR      39  28  65 NW7       30.20S
STERLING       FAIR      37  28  70 CALM      30.19S
HOLYOKE        FAIR      45  30  57 NW9G18    30.18S
FORT MORGAN    FAIR      49  17  27 N8        30.23S
$$

COZ086-089-092>099-170600-
...SOUTHEAST COLORADO...

CITY           SKY/WX    TMP DP  RH WIND       PRES   REMARKS
PUEBLO         FAIR      54  20  26 NW8       30.22R
LA JUNTA       FAIR      50  29  44 N6        30.18S
LAMAR          FAIR      46  33  60 CALM      30.15R
SPRINGFIELD      N/A     46  36  68 SW7       30.20F
$$




USA.gov is the U.S. government's official web portal to all federal, state and local government web resources and services.